Regional Weather Roundup
Issued by NWS

Home | Current Version | Previous Version | Graphics & Text | Print | Product List | Glossary On
Versions: 1 2 3 4 5 6 7 8 9 10 11 12 13 14 15 16 17 18 19 20 21 22 23 24 25 26 27 28 29 30 31 32 33 34 35 36 37 38 39 40 41 42 43 44 45 46 47 48 49 50
309
ASUS43 KFSD 231402
RWRSD

WEATHER ROUNDUP FOR SOUTH DAKOTA
NATIONAL WEATHER SERVICE SIOUX FALLS SD
900 AM CDT MON OCT 23 2017

NOTE: "FAIR" INDICATES FEW OR NO CLOUDS BELOW 12,000 FEET WITH NO
SIGNIFICANT WEATHER AND/OR OBSTRUCTIONS TO VISIBILITY.


SDZ001>005-009-010-012>017-231500-
NORTHWEST AND NORTH CENTRAL SOUTH DAKOTA

CITY           SKY/WX    TMP DP  RH WIND       PRES   REMARKS
BUFFALO          N/A     42  28  57 W22       30.13R
MOBRIDGE       CLEAR     49  38  65 NW29G36   30.00R
$$

SDZ012>016-024>037-041>051-057-063-072>074-231500-
SOUTHWEST AND SOUTH CENTRAL SOUTH DAKOTA

CITY           SKY/WX    TMP DP  RH WIND       PRES   REMARKS
RAPID CTY ARPT CLEAR     49  22  34 NW29G40   30.22R
PIERRE         MOCLDY    50  37  61 NW23G35   30.08R
CUSTER         CLEAR     38  18  44 NW13G21   30.25R
ELLSWORTH AFB  CLEAR     48  22  35 NW25G37   30.21R
PHILIP         CLEAR     48  28  46 NW20G25   30.16R
PINE RIDGE     CLEAR     34  28  79 W5        30.27R WCI  30
SPEARFISH      FAIR      45  21  39 W21G29    30.26R
WINNER         CLOUDY    52  33  48 NW18      30.12R
$$

SDZ004>011-016>023-039-040-231500-
NORTHEAST SOUTH DAKOTA

CITY           SKY/WX    TMP DP  RH WIND       PRES   REMARKS
ABERDEEN       CLOUDY    49  39  68 NW18G25   29.95R
WATERTOWN      CLEAR     47  38  71 W15       29.90R
BROOKINGS      PTSUNNY   49  38  65 NW15      29.93R
SISSETON         N/A     50  36  58 NW26G38   29.86R
$$

SDZ017-020-022-023-036>040-048>070-231500-
SOUTHEAST SOUTH DAKOTA

CITY           SKY/WX    TMP DP  RH WIND       PRES   REMARKS
SIOUX FALLS    MOSUNNY   52  39  61 NW18G31   29.94R
HURON          CLEAR     49  39  68 NW22G29   29.98R
CHAMBERLAIN    CLEAR     51  37  60 W16G24    30.08R
MITCHELL       PTCLDY    51  38  60 NW17G28   30.02R
YANKTON        CLOUDY    53  38  56 NW21      30.00R
$$

ABBREVIATIONS USED IN REMARKS
   TC - TEMPERATURE IN CELSIUS
  WCI - WIND CHILL INDEX
   HX - HEAT INDEX
  VSB - VISIBILITY





USA.gov is the U.S. government's official web portal to all federal, state and local government web resources and services.